Zurück zum Katalog

FENGYUN 1C DEB

AktivSSO
NORAD 36230·DEBRIS·🇨🇳 China

Gestartet May 10, 1999 von Taiyuan Satellite Launch Center

Loading…

Nächste Überflüge (nächste 24 Stunden)

TLE

AlterndSource: Space-Track

Epoche: Sep 10, 2026, 01:33 UTC

1 36230U 99025DVF 26253.06483261  .00001156  00000-0  10405-2 0  9992
2 36230  99.5153 332.9970 0214630 152.5910 208.6756 13.76194439656176

Verfolge FENGYUN 1C DEB in Echtzeit mit AllMySat

Download on the App Store